DW6610 Weather Reports


time (UTC)temp
C
wind
direction
speed
KPH
gust
KPH
rain 1hr
cm
rain 24hr
cm
rain mn
cm
humidity
%
barometer
mb
20260901095051 22 0 0.0 0.0 0.00 0.00 0.00 96 1018.7
20260901094602 22 0 0.0 0.0 0.00 0.00 0.00 96 1018.7
20260901094055 22 0 0.0 0.0 0.00 0.00 0.00 95 1018.6
20260901093551 23 0 0.0 0.0 0.00 0.00 0.00 95 1018.7
20260901093110 23 0 0.0 0.0 0.00 0.00 0.00 95 1018.7
20260901092553 23 0 0.0 0.0 0.00 0.00 0.00 94 1018.7
20260901092052 23 0 0.0 0.0 0.00 0.00 0.00 95 1018.7
20260901091606 23 0 0.0 0.0 0.00 0.00 0.00 94 1018.6
20260901091051 23 0 0.0 0.0 0.00 0.00 0.00 94 1018.6
20260901090551 23 0 0.0 0.0 0.00 0.00 0.00 94 1018.6
20260901090108 23 0 0.0 1.6 0.00 0.00 0.00 93 1018.6
20260901085551 23 0 0.0 1.6 0.00 0.00 0.00 93 1018.5
20260901085051 23 95 0.0 1.6 0.00 0.00 0.00 93 1018.5
20260901084605 23 94 0.0 1.6 0.00 0.00 0.00 94 1018.4
20260901084052 23 0 0.0 1.6 0.00 0.00 0.00 94 1018.5
20260901083552 23 0 0.0 1.6 0.00 0.00 0.00 94 1018.4
20260901083104 23 0 0.0 1.6 0.00 0.00 0.00 95 1018.5
20260901082551 23 95 0.0 1.6 0.00 0.00 0.00 95 1018.4
20260901082055 23 0 0.0 0.0 0.00 0.00 0.00 95 1018.3
20260901081604 23 0 0.0 0.0 0.00 0.00 0.00 95 1018.3
20260901081051 23 0 0.0 0.0 0.00 0.00 0.00 95 1018.4
20260901080551 23 0 0.0 0.0 0.00 0.00 0.00 95 1018.6
20260901080209 23 0 0.0 0.0 0.00 0.00 0.00 95 1018.6
20260901075554 23 0 0.0 0.0 0.00 0.00 0.00 95 1018.5
20260901075051 23 0 0.0 0.0 0.00 0.00 0.00 95 1018.4
20260901074601 23 0 0.0 0.0 0.00 0.00 0.00 95 1018.3
20260901074130 23 0 0.0 0.0 0.00 0.00 0.00 95 1018.4
20260901073552 23 0 0.0 0.0 0.00 0.00 0.00 95 1018.4
20260901073103 23 0 0.0 0.0 0.00 0.00 0.00 95 1018.3
20260901072551 23 0 0.0 0.0 0.00 0.00 0.00 94 1018.2
20260901072056 23 0 0.0 0.0 0.00 0.00 0.00 94 1018.3
20260901071604 23 0 0.0 1.6 0.00 0.00 0.00 94 1018.3
20260901071051 23 0 0.0 1.6 0.00 0.00 0.00 94 1018.2
20260901070551 23 0 0.0 1.6 0.00 0.00 0.00 94 1018.2
20260901070134 23 0 0.0 0.0 0.00 0.00 0.00 94 1018.2
20260901065551 23 0 0.0 0.0 0.00 0.00 0.00 94 1018.2
20260901065052 23 0 0.0 0.0 0.00 0.00 0.00 94 1018.3
20260901064610 23 0 0.0 0.0 0.00 0.00 0.00 94 1018.3
20260901064053 23 0 0.0 0.0 0.00 0.00 0.00 94 1018.3
20260901063551 24 0 0.0 0.0 0.00 0.00 0.00 93 1018.2
20260901063106 24 0 0.0 0.0 0.00 0.00 0.00 93 1018.3
20260901062552 24 0 0.0 0.0 0.00 0.00 0.00 93 1018.2
20260901062052 24 0 0.0 0.0 0.00 0.00 0.00 93 1018.3
20260901061610 24 0 0.0 0.0 0.00 0.00 0.00 93 1018.3
20260901061051 24 0 0.0 0.0 0.00 0.00 0.00 93 1018.3
20260901060555 25 0 0.0 0.0 0.00 0.00 0.00 92 1018.4
20260901060107 25 0 0.0 1.6 0.00 0.00 0.00 92 1018.4
20260901055552 25 0 0.0 1.6 0.00 0.00 0.00 92 1018.4
20260901055052 25 0 0.0 1.6 0.00 0.00 0.00 91 1018.5
20260901054607 25 0 0.0 1.6 0.00 0.00 0.00 90 1018.5
20260901054049 25 0 0.0 1.6 0.00 0.00 0.00 90 1018.5
20260901053553 25 0 0.0 0.0 0.00 0.00 0.00 89 1018.5
20260901053111 25 0 0.0 0.0 0.00 0.00 0.00 89 1018.4
20260901052551 25 0 0.0 0.0 0.00 0.00 0.00 88 1018.4
20260901052051 25 0 0.0 0.0 0.00 0.00 0.00 88 1018.4
20260901051608 25 0 0.0 0.0 0.00 0.00 0.00 88 1018.3
20260901051051 25 0 0.0 0.0 0.00 0.00 0.00 87 1018.3
20260901050551 26 0 0.0 1.6 0.00 0.00 0.00 87 1018.4
20260901050104 26 0 0.0 1.6 0.00 0.00 0.00 86 1018.4
20260901045549 26 0 0.0 1.6 0.00 0.00 0.00 85 1018.4
20260901045052 26 0 0.0 0.0 0.00 0.00 0.00 84 1018.3
20260901044620 26 0 0.0 1.6 0.00 0.00 0.00 83 1018.3
20260901044051 26 0 0.0 1.6 0.00 0.00 0.00 83 1018.2
20260901043552 26 95 0.0 1.6 0.00 0.00 0.00 83 1018.2
20260901043104 26 95 0.0 1.6 0.00 0.00 0.00 83 1018.2
20260901042552 26 0 0.0 1.6 0.00 0.00 0.00 83 1018.2
20260901042051 26 0 0.0 1.6 0.00 0.00 0.00 82 1018.2
20260901041559 26 0 0.0 3.2 0.00 0.00 0.00 82 1018.3
20260901041052 26 0 0.0 3.2 0.00 0.00 0.00 83 1018.2
20260901040551 26 0 0.0 1.6 0.00 0.00 0.00 84 1018.1
20260901040108 26 77 0.0 1.6 0.00 0.00 0.00 85 1018.2
20260901035552 26 0 0.0 1.6 0.00 0.00 0.00 86 1018.1
20260901035052 26 0 0.0 0.0 0.00 0.00 0.00 86 1018.1
20260901034601 26 0 0.0 0.0 0.00 0.00 0.00 87 1018.1
20260901034053 26 0 0.0 0.0 0.00 0.00 0.00 86 1018.0
20260901033551 26 0 0.0 0.0 0.00 0.00 0.00 86 1018.0
20260901033103 26 0 0.0 1.6 0.00 0.00 0.00 85 1018.0
20260901032553 26 0 0.0 1.6 0.00 0.00 0.00 85 1018.0
20260901032050 27 0 0.0 1.6 0.00 0.00 0.00 85 1018.0
20260901031604 27 0 0.0 1.6 0.00 0.00 0.00 84 1018.0
20260901031051 27 0 0.0 1.6 0.00 0.00 0.00 83 1018.0
20260901030554 27 0 0.0 0.0 0.00 0.00 0.00 82 1017.9
20260901030105 27 0 0.0 0.0 0.00 0.00 0.00 81 1017.9
20260901025553 27 0 0.0 0.0 0.00 0.00 0.00 81 1017.9
20260901025053 27 0 0.0 0.0 0.00 0.00 0.00 80 1018.0
20260901024605 28 0 0.0 0.0 0.00 0.00 0.00 79 1017.9
20260901024053 28 0 0.0 0.0 0.00 0.00 0.00 76 1017.9
20260901023551 28 0 0.0 1.6 0.00 0.00 0.00 74 1018.0
20260901023102 28 0 0.0 1.6 0.00 0.00 0.00 73 1017.9
20260901022551 28 76 0.0 1.6 0.00 0.00 0.00 73 1017.7
20260901022051 28 0 0.0 1.6 0.00 0.00 0.00 73 1017.7
20260901021613 28 0 0.0 1.6 0.00 0.00 0.00 73 1017.8
20260901021052 28 0 0.0 1.6 0.00 0.00 0.00 74 1017.7
20260901020552 28 76 0.0 1.6 0.00 0.00 0.00 74 1017.7
20260901020104 28 0 0.0 1.6 0.00 0.00 0.00 74 1017.5
20260901015552 28 0 0.0 1.6 0.00 0.00 0.00 74 1017.5
20260901015051 28 0 0.0 1.6 0.00 0.00 0.00 74 1017.4
20260901014604 29 75 0.0 1.6 0.00 0.00 0.00 73 1017.4
20260901014052 29 0 0.0 3.2 0.00 0.00 0.00 72 1017.4
20260901013552 29 0 0.0 3.2 0.00 0.00 0.00 72 1017.3
20260901013119 29 0 0.0 1.6 0.00 0.00 0.00 72 1017.2
20260901012553 30 0 0.0 1.6 0.00 0.00 0.00 71 1017.2
20260901012051 30 86 0.0 1.6 0.00 0.00 0.00 70 1017.2
20260901011600 30 0 0.0 1.6 0.00 0.00 0.00 68 1017.2
20260901011052 30 0 0.0 1.6 0.00 0.00 0.00 67 1017.1
20260901010553 30 0 0.0 1.6 0.00 0.00 0.00 65 1017.1
20260901010056 31 0 0.0 1.6 0.00 0.00 0.00 64 1017.0
20260901005552 31 0 0.0 1.6 0.00 0.00 0.00 64 1017.0
20260901005050 31 0 0.0 1.6 0.00 0.00 0.00 63 1017.0
20260901004608 31 0 0.0 1.6 0.00 0.00 0.00 62 1016.8
20260901004052 31 0 0.0 1.6 0.00 0.00 0.00 61 1016.8
20260901003552 32 0 0.0 1.6 0.00 0.00 0.00 61 1016.8
20260901003104 32 0 0.0 1.6 0.00 0.00 0.00 59 1016.8
20260901002552 32 0 0.0 4.8 0.00 0.00 0.00 58 1016.8
20260901002053 32 86 0.0 4.8 0.00 0.00 0.00 57 1016.8
20260901001605 33 0 0.0 4.8 0.00 0.00 0.00 56 1016.8
20260901001055 33 0 0.0 3.2 0.00 0.00 0.00 55 1016.9
20260901000551 33 0 1.6 3.2 0.00 0.00 0.00 55 1017.0
20260901000107 33 0 0.0 4.8 0.00 0.00 0.00 54 1016.9
20260831235552 33 85 0.0 4.8 0.00 0.00 0.00 53 1016.9
20260831235056 34 45 1.6 4.8 0.00 0.00 0.00 52 1017.0
20260831234602 34 0 0.0 6.4 0.00 0.00 0.00 51 1017.0
20260831234052 35 108 1.6 6.4 0.00 0.00 0.00 51 1017.0
20260831233551 35 0 0.0 3.2 0.00 0.00 0.00 50 1017.1
20260831233104 36 263 0.0 6.4 0.00 0.00 0.00 49 1017.2
20260831232551 36 79 1.6 6.4 0.00 0.00 0.00 48 1017.1
20260831232051 36 82 1.6 8.0 0.00 0.00 0.00 48 1017.2
20260831231632 36 283 0.0 8.0 0.00 0.00 0.00 48 1017.2
20260831231052 36 131 1.6 4.8 0.00 0.00 0.00 48 1017.2
20260831230552 37 64 1.6 4.8 0.00 0.00 0.00 48 1017.2
20260831230110 37 304 1.6 4.8 0.00 0.00 0.00 46 1017.2
20260831225551 37 79 0.0 4.8 0.00 0.00 0.00 47 1017.3
20260831225051 37 88 1.6 4.8 0.00 0.00 0.00 48 1017.2
20260831224637 37 79 3.2 4.8 0.00 0.00 0.00 49 1017.2
20260831224051 37 102 0.0 3.2 0.00 0.00 0.00 47 1017.3
20260831223552 37 96 0.0 4.8 0.00 0.00 0.00 49 1017.3
20260831223110 37 79 1.6 8.0 0.00 0.00 0.00 48 1017.4
20260831222552 37 80 0.0 8.0 0.00 0.00 0.00 48 1017.4
20260831222051 37 101 1.6 8.0 0.00 0.00 0.00 48 1017.4
20260831221614 36 81 0.0 4.8 0.00 0.00 0.00 49 1017.5
20260831221053 36 267 1.6 4.8 0.00 0.00 0.00 48 1017.4
20260831220553 37 72 1.6 4.8 0.00 0.00 0.00 47 1017.5
20260831220109 37 79 1.6 8.0 0.00 0.00 0.00 48 1017.4
20260831215553 37 82 1.6 8.0 0.00 0.00 0.00 49 1017.5
20260831215053 37 32 1.6 4.8 0.00 0.00 0.00 48 1017.4
20260831214608 37 75 1.6 8.0 0.00 0.00 0.00 48 1017.5
20260831214056 37 138 1.6 8.0 0.00 0.00 0.00 49 1017.4
20260831213552 37 12 1.6 8.0 0.00 0.00 0.00 48 1017.5
20260831213117 37 65 3.2 8.0 0.00 0.00 0.00 48 1017.5
20260831212552 37 316 1.6 6.4 0.00 0.00 0.00 49 1017.6
20260831212051 37 91 1.6 6.4 0.00 0.00 0.00 51 1017.6
20260831211610 37 112 1.6 8.0 0.00 0.00 0.00 47 1017.7
20260831211052 37 79 1.6 8.0 0.00 0.00 0.00 47 1017.7
20260831210551 37 340 1.6 8.0 0.00 0.00 0.00 48 1017.8
20260831210107 37 96 1.6 6.4 0.00 0.00 0.00 52 1017.8
20260831205552 37 87 1.6 6.4 0.00 0.00 0.00 52 1017.8
20260831205052 37 84 1.6 6.4 0.00 0.00 0.00 50 1017.8
20260831204606 37 94 1.6 6.4 0.00 0.00 0.00 54 1017.8
20260831204053 36 84 1.6 6.4 0.00 0.00 0.00 53 1017.8
20260831203551 36 92 1.6 9.7 0.00 0.00 0.00 55 1017.9
20260831203103 36 95 1.6 9.7 0.00 0.00 0.00 51 1018.0
20260831202552 37 107 3.2 9.7 0.00 0.00 0.00 51 1017.9
20260831202052 37 92 1.6 8.0 0.00 0.00 0.00 53 1018.0
20260831201613 37 69 1.6 6.4 0.00 0.00 0.00 50 1018.0
20260831201052 36 95 1.6 4.8 0.00 0.00 0.00 56 1018.0
20260831200551 36 98 1.6 9.7 0.00 0.00 0.00 53 1018.1
20260831200103 36 76 3.2 9.7 0.00 0.00 0.00 54 1018.2
20260831195555 36 96 3.2 8.0 0.00 0.00 0.00 55 1018.2
20260831195051 36 118 3.2 8.0 0.00 0.00 0.00 54 1018.3
20260831194618 36 82 3.2 6.4 0.00 0.00 0.00 54 1018.4
20260831194052 36 93 1.6 8.0 0.00 0.00 0.00 55 1018.5
20260831193553 36 56 1.6 8.0 0.00 0.00 0.00 53 1018.5
20260831193105 36 75 3.2 9.7 0.00 0.00 0.00 53 1018.5
20260831192551 36 148 1.6 9.7 0.00 0.00 0.00 56 1018.6
20260831192050 36 85 3.2 9.7 0.00 0.00 0.00 54 1018.6
20260831191607 35 116 1.6 4.8 0.00 0.00 0.00 57 1018.7
20260831191051 35 134 1.6 8.0 0.00 0.00 0.00 56 1018.8
20260831190551 35 89 1.6 8.0 0.00 0.00 0.00 55 1018.9
20260831190132 35 86 3.2 8.0 0.00 0.00 0.00 53 1018.9
20260831185551 35 68 1.6 6.4 0.00 0.00 0.00 56 1019.1
20260831185051 35 93 3.2 6.4 0.00 0.00 0.00 58 1019.0
20260831184606 35 101 1.6 6.4 0.00 0.00 0.00 63 1019.1
20260831184052 35 122 3.2 6.4 0.00 0.00 0.00 55 1019.1
20260831183551 35 124 0.0 11.3 0.00 0.00 0.00 56 1019.3
20260831183104 35 134 3.2 11.3 0.00 0.00 0.00 54 1019.4
20260831182551 36 80 1.6 6.4 0.00 0.00 0.00 55 1019.4
20260831182051 36 0 1.6 8.0 0.00 0.00 0.00 58 1019.5
20260831181610 36 80 3.2 8.0 0.00 0.00 0.00 55 1019.6
20260831181053 36 86 3.2 6.4 0.00 0.00 0.00 56 1019.7
20260831180551 35 116 3.2 9.7 0.00 0.00 0.00 59 1019.8
20260831180110 35 90 1.6 9.7 0.00 0.00 0.00 58 1019.8
20260831175552 35 353 3.2 9.7 0.00 0.00 0.00 55 1019.9
20260831175052 35 30 3.2 9.7 0.00 0.00 0.00 57 1019.9
20260831174605 35 0 1.6 11.3 0.00 0.00 0.00 55 1020.0
20260831174054 35 114 3.2 11.3 0.00 0.00 0.00 55 1020.1
20260831173552 35 90 4.8 11.3 0.00 0.00 0.00 55 1020.2
20260831173105 35 74 3.2 6.4 0.00 0.00 0.00 55 1020.2
20260831172553 35 89 1.6 9.7 0.00 0.00 0.00 62 1020.3
20260831172051 35 77 1.6 9.7 0.00 0.00 0.00 56 1020.3
20260831171605 35 95 1.6 8.0 0.00 0.00 0.00 59 1020.3
20260831171052 35 79 1.6 8.0 0.00 0.00 0.00 60 1020.5
20260831170552 35 75 1.6 8.0 0.00 0.00 0.00 60 1020.5
20260831170106 35 80 1.6 8.0 0.00 0.00 0.00 57 1020.4
20260831165551 35 91 0.0 8.0 0.00 0.00 0.00 58 1020.4
20260831165051 35 335 1.6 6.4 0.00 0.00 0.00 58 1020.5
20260831164623 35 102 3.2 6.4 0.00 0.00 0.00 58 1020.6
20260831164052 35 109 1.6 6.4 0.00 0.00 0.00 63 1020.5
20260831163551 34 75 1.6 4.8 0.00 0.00 0.00 63 1020.6
20260831163103 33 94 0.0 6.4 0.00 0.00 0.00 62 1020.6
20260831162552 33 94 1.6 9.7 0.00 0.00 0.00 63 1020.6
20260831162051 33 48 3.2 9.7 0.00 0.00 0.00 60 1020.6
20260831161607 34 100 3.2 9.7 0.00 0.00 0.00 59 1020.5
20260831161056 33 39 1.6 6.4 0.00 0.00 0.00 62 1020.6
20260831160551 33 94 1.6 6.4 0.00 0.00 0.00 62 1020.5
20260831160106 34 90 1.6 6.4 0.00 0.00 0.00 59 1020.5
20260831155553 34 79 1.6 6.4 0.00 0.00 0.00 61 1020.6
20260831155052 34 116 1.6 6.4 0.00 0.00 0.00 61 1020.6
20260831154632 34 108 1.6 8.0 0.00 0.00 0.00 63 1020.6
20260831154052 33 98 1.6 11.3 0.00 0.00 0.00 64 1020.6
20260831153554 33 82 4.8 11.3 0.00 0.00 0.00 62 1020.5
20260831153110 33 108 3.2 8.0 0.00 0.00 0.00 63 1020.4
20260831152552 33 70 3.2 9.7 0.00 0.00 0.00 64 1020.4
20260831152053 33 56 4.8 11.3 0.00 0.00 0.00 65 1020.4
20260831151614 33 32 3.2 11.3 0.00 0.00 0.00 65 1020.3
20260831151052 33 340 4.8 8.0 0.00 0.00 0.00 63 1020.4
20260831150552 33 57 1.6 8.0 0.00 0.00 0.00 64 1020.3
20260831150113 33 86 0.0 6.4 0.00 0.00 0.00 69 1020.4
20260831145551 32 44 1.6 6.4 0.00 0.00 0.00 66 1020.4
20260831145051 32 285 3.2 8.0 0.00 0.00 0.00 66 1020.3
20260831144614 32 16 1.6 8.0 0.00 0.00 0.00 66 1020.4
20260831144052 32 56 0.0 4.8 0.00 0.00 0.00 68 1020.4
20260831143552 32 56 1.6 4.8 0.00 0.00 0.00 69 1020.4
20260831143123 32 70 1.6 4.8 0.00 0.00 0.00 70 1020.4
20260831142553 32 117 1.6 4.8 0.00 0.00 0.00 71 1020.3
20260831142055 32 106 1.6 4.8 0.00 0.00 0.00 70 1020.3
20260831141610 31 92 0.0 3.2 0.00 0.00 0.00 72 1020.3
20260831141051 31 91 0.0 3.2 0.00 0.00 0.00 72 1020.4
20260831140551 31 0 0.0 3.2 0.00 0.00 0.00 73 1020.4
20260831140111 31 0 0.0 3.2 0.00 0.00 0.00 75 1020.4
20260831135551 30 75 0.0 4.8 0.00 0.00 0.00 76 1020.3
20260831135052 30 79 1.6 4.8 0.00 0.00 0.00 76 1020.4
20260831134605 30 54 1.6 4.8 0.00 0.00 0.00 77 1020.3
20260831134051 29 81 0.0 4.8 0.00 0.00 0.00 79 1020.3
20260831133551 28 75 0.0 4.8 0.00 0.00 0.00 80 1020.2
20260831133108 28 75 0.0 4.8 0.00 0.00 0.00 83 1020.2
20260831132554 27 49 0.0 4.8 0.00 0.00 0.00 84 1020.2
20260831132053 26 50 1.6 4.8 0.00 0.00 0.00 84 1020.3
20260831131610 26 91 0.0 4.8 0.00 0.00 0.00 87 1020.2
20260831131052 25 0 1.6 4.8 0.00 0.00 0.00 89 1020.1
20260831130552 25 69 1.6 3.2 0.00 0.00 0.00 90 1020.1
20260831130127 24 0 0.0 3.2 0.00 0.00 0.00 92 1020.0
20260831125551 23 0 1.6 3.2 0.00 0.00 0.00 93 1020.0
20260831125053 23 0 0.0 4.8 0.00 0.00 0.00 94 1020.1
20260831124605 23 65 0.0 4.8 0.00 0.00 0.00 94 1020.0
20260831124051 22 75 0.0 1.6 0.00 0.00 0.00 95 1019.9
20260831123552 22 0 0.0 1.6 0.00 0.00 0.00 96 1019.9
20260831123103 22 0 0.0 1.6 0.00 0.00 0.00 96 1019.9
20260831122552 22 0 0.0 1.6 0.00 0.00 0.00 96 1019.8
20260831122052 22 0 0.0 1.6 0.00 0.00 0.00 96 1019.8
20260831121609 22 0 0.0 1.6 0.00 0.00 0.00 96 1019.6
20260831121055 22 0 0.0 1.6 0.00 0.00 0.00 96 1019.6
20260831120551 21 0 0.0 0.0 0.00 0.00 0.00 96 1019.5
20260831120113 21 0 0.0 0.0 0.00 0.00 0.00 96 1019.5
20260831115551 21 0 0.0 0.0 0.00 0.00 0.00 96 1019.5
20260831115052 21 0 0.0 1.6 0.00 0.00 0.00 96 1019.5
20260831114610 22 0 0.0 1.6 0.00 0.00 0.00 96 1019.5
20260831114052 21 75 0.0 1.6 0.00 0.00 0.00 96 1019.3
20260831113553 21 0 0.0 1.6 0.00 0.00 0.00 96 1019.2
20260831113108 21 0 0.0 1.6 0.00 0.00 0.00 96 1019.3
20260831112551 21 0 0.0 1.6 0.00 0.00 0.00 96 1019.1
20260831112051 21 0 0.0 1.6 0.00 0.00 0.00 95 1019.1
20260831111605 22 0 0.0 1.6 0.00 0.00 0.00 95 1019.0
20260831111051 22 0 0.0 0.0 0.00 0.00 0.00 95 1019.1
20260831110551 22 0 0.0 1.6 0.00 0.00 0.00 95 1019.1
20260831110108 22 0 0.0 1.6 0.00 0.00 0.00 95 1019.1
20260831105551 22 0 0.0 1.6 0.00 0.00 0.00 95 1019.0
20260831105052 22 0 0.0 1.6 0.00 0.00 0.00 94 1018.9
20260831104606 22 0 0.0 1.6 0.00 0.00 0.00 94 1018.8
20260831104051 22 0 0.0 1.6 0.00 0.00 0.00 94 1018.7
20260831103555 22 0 0.0 1.6 0.00 0.00 0.00 94 1018.7
20260831103104 22 0 0.0 1.6 0.00 0.00 0.00 94 1018.7
20260831102556 22 0 0.0 1.6 0.00 0.00 0.00 94 1018.5
20260831102051 22 0 0.0 1.6 0.00 0.00 0.00 94 1018.5
20260831101609 22 75 0.0 1.6 0.00 0.00 0.00 94 1018.5
20260831101051 22 0 0.0 1.6 0.00 0.00 0.00 93 1018.5
20260831100551 22 0 0.0 1.6 0.00 0.00 0.00 93 1018.4
20260831100109 22 0 0.0 1.6 0.00 0.00 0.00 93 1018.4
20260831095551 22 0 0.0 3.2 0.00 0.00 0.00 93 1018.2